| time (UTC) | temp F | wind direction | speed MPH | gust MPH | rain 1hr in | rain 24hr in | rain mn in | humidity % | barometer mb |
| 20260503190530 | 46 | 255 | 10.0 | 22.0 | 0.00 | 0.15 | 0.00 | 46 | 1005.4 |
| 20260503190040 | 46 | 275 | 6.0 | 16.0 | 0.00 | 0.15 | 0.00 | 48 | 1005.4 |
| 20260503185531 | 46 | 315 | 7.0 | 16.0 | 0.00 | 0.16 | 0.00 | 47 | 1005.3 |
| 20260503185029 | 47 | 237 | 7.0 | 15.0 | 0.00 | 0.16 | 0.00 | 45 | 1005.3 |
| 20260503184544 | 47 | 304 | 5.0 | 18.0 | 0.00 | 0.16 | 0.00 | 48 | 1005.3 |
| 20260503184030 | 47 | 344 | 6.0 | 18.0 | 0.00 | 0.16 | 0.00 | 48 | 1005.3 |
| 20260503183529 | 47 | 282 | 6.0 | 20.0 | 0.00 | 0.16 | 0.00 | 48 | 1005.2 |
| 20260503183046 | 47 | 325 | 7.0 | 20.0 | 0.00 | 0.16 | 0.00 | 48 | 1005.3 |
| 20260503182529 | 47 | 279 | 5.0 | 19.0 | 0.00 | 0.16 | 0.00 | 48 | 1005.2 |
| 20260503182030 | 47 | 331 | 9.0 | 19.0 | 0.00 | 0.16 | 0.00 | 46 | 1005.2 |
| 20260503181551 | 47 | 289 | 9.0 | 17.0 | 0.00 | 0.16 | 0.00 | 45 | 1005.2 |
| 20260503181033 | 48 | 304 | 7.0 | 13.0 | 0.00 | 0.16 | 0.00 | 47 | 1005.1 |
| 20260503180530 | 48 | 271 | 5.0 | 13.0 | 0.00 | 0.16 | 0.00 | 47 | 1005.0 |
| 20260503180042 | 48 | 352 | 6.0 | 17.0 | 0.00 | 0.16 | 0.00 | 48 | 1004.9 |
| 20260503175530 | 48 | 352 | 5.0 | 17.0 | 0.00 | 0.17 | 0.00 | 47 | 1005.1 |
| 20260503175029 | 47 | 277 | 6.0 | 16.0 | 0.00 | 0.17 | 0.00 | 47 | 1005.1 |
| 20260503174551 | 47 | 10 | 7.0 | 14.0 | 0.00 | 0.17 | 0.00 | 48 | 1005.2 |
| 20260503174029 | 47 | 319 | 7.0 | 20.0 | 0.00 | 0.17 | 0.00 | 52 | 1005.2 |
| 20260503173529 | 47 | 350 | 5.0 | 20.0 | 0.00 | 0.17 | 0.00 | 52 | 1005.1 |
| 20260503173034 | 46 | 24 | 8.0 | 20.0 | 0.00 | 0.17 | 0.00 | 52 | 1005.1 |
| 20260503172528 | 47 | 355 | 6.0 | 18.0 | 0.00 | 0.17 | 0.00 | 55 | 1005.0 |
| 20260503172029 | 46 | 333 | 7.0 | 18.0 | 0.00 | 0.17 | 0.00 | 52 | 1005.1 |
| 20260503171542 | 47 | 9 | 9.0 | 18.0 | 0.00 | 0.17 | 0.00 | 55 | 1005.2 |
| 20260503171032 | 47 | 333 | 5.0 | 23.0 | 0.00 | 0.17 | 0.00 | 60 | 1005.1 |
| 20260503170530 | 46 | 339 | 10.0 | 23.0 | 0.00 | 0.17 | 0.00 | 54 | 1005.1 |
| 20260503150535 | 43 | 348 | 5.0 | 21.0 | 0.00 | 0.24 | 0.00 | 72 | 1005.6 |
| 20260503131030 | 38 | 308 | 3.0 | 12.0 | 0.00 | 0.25 | 0.00 | 87 | 1006.4 |
| 20260503130529 | 38 | 265 | 4.0 | 12.0 | 0.00 | 0.25 | 0.00 | 86 | 1006.3 |
| 20260503110533 | 36 | 290 | 2.0 | 10.0 | 0.00 | 0.26 | 0.00 | 92 | 1006.4 |
| 20260503081554 | 36 | 261 | 1.0 | 7.0 | 0.00 | 0.31 | 0.00 | 94 | 1007.0 |
| 20260503081027 | 36 | 267 | 2.0 | 7.0 | 0.00 | 0.31 | 0.00 | 94 | 1007.1 |
| 20260503080530 | 36 | 0 | 1.0 | 7.0 | 0.00 | 0.31 | 0.00 | 94 | 1007.2 |
| 20260503072530 | 35 | 277 | 2.0 | 8.0 | 0.00 | 0.32 | 0.00 | 94 | 1007.3 |
| 20260503072029 | 35 | 279 | 1.0 | 8.0 | 0.00 | 0.32 | 0.00 | 94 | 1007.2 |
| 20260503071556 | 35 | 281 | 3.0 | 8.0 | 0.00 | 0.32 | 0.00 | 95 | 1007.3 |
| 20260503071029 | 35 | 300 | 2.0 | 6.0 | 0.00 | 0.32 | 0.00 | 94 | 1007.4 |
| 20260503070532 | 35 | 261 | 1.0 | 8.0 | 0.00 | 0.32 | 0.00 | 94 | 1007.5 |
| 20260503055028 | 36 | 277 | 3.0 | 7.0 | 0.00 | 0.37 | 0.00 | 94 | 1008.0 |
| 20260503054551 | 36 | 276 | 2.0 | 6.0 | 0.00 | 0.37 | 0.00 | 94 | 1008.3 |
| 20260503054029 | 36 | 248 | 2.0 | 6.0 | 0.00 | 0.37 | 0.00 | 94 | 1008.3 |
| 20260503053530 | 36 | 259 | 2.0 | 5.0 | 0.00 | 0.37 | 0.00 | 94 | 1008.3 |
| 20260503053041 | 36 | 268 | 1.0 | 6.0 | 0.00 | 0.37 | 0.00 | 95 | 1008.4 |
| 20260503052530 | 36 | 257 | 1.0 | 6.0 | 0.00 | 0.37 | 0.00 | 95 | 1008.3 |
| 20260503052030 | 36 | 284 | 1.0 | 6.0 | 0.00 | 0.37 | 0.00 | 95 | 1008.6 |
| 20260503051548 | 36 | 277 | 2.0 | 6.0 | 0.00 | 0.37 | 0.00 | 95 | 1008.6 |
| 20260503051029 | 36 | 254 | 2.0 | 6.0 | 0.00 | 0.37 | 0.00 | 95 | 1008.5 |
| 20260503050529 | 36 | 306 | 1.0 | 4.0 | 0.00 | 0.37 | 0.00 | 94 | 1008.6 |
| 20260503050040 | 36 | 262 | 0.0 | 3.0 | 0.00 | 0.37 | 0.00 | 94 | 1008.6 |
| 20260503045530 | 36 | 292 | 0.0 | 3.0 | 0.00 | 0.37 | 0.00 | 94 | 1008.6 |
| 20260503045030 | 36 | 0 | 0.0 | 2.0 | 0.00 | 0.37 | 0.00 | 94 | 1008.6 |
| 20260503044535 | 36 | 0 | 0.0 | 2.0 | 0.00 | 0.37 | 0.00 | 94 | 1008.8 |
| 20260503044028 | 36 | 307 | 0.0 | 2.0 | 0.00 | 0.37 | 0.00 | 94 | 1008.9 |
| 20260503043529 | 36 | 0 | 0.0 | 2.0 | 0.00 | 0.37 | 0.00 | 94 | 1009.0 |
| 20260503043033 | 36 | 307 | 0.0 | 4.0 | 0.00 | 0.37 | 0.00 | 94 | 1009.0 |
| 20260503042529 | 37 | 0 | 0.0 | 4.0 | 0.00 | 0.37 | 0.00 | 94 | 1009.0 |
| 20260503042029 | 37 | 330 | 1.0 | 4.0 | 0.00 | 0.37 | 0.00 | 94 | 1009.0 |
| 20260503041539 | 37 | 322 | 1.0 | 3.0 | 0.00 | 0.37 | 0.00 | 94 | 1009.1 |
| 20260503041030 | 37 | 319 | 0.0 | 3.0 | 0.00 | 0.37 | 0.00 | 94 | 1009.1 |
| 20260503040532 | 37 | 0 | 0.0 | 3.0 | 0.00 | 0.37 | 0.00 | 94 | 1009.2 |
| 20260503040044 | 37 | 279 | 1.0 | 3.0 | 0.00 | 0.37 | 0.00 | 94 | 1009.2 |
| 20260503035529 | 37 | 277 | 0.0 | 3.0 | 0.00 | 0.37 | 0.37 | 94 | 1009.1 |
| 20260503035030 | 37 | 272 | 0.0 | 3.0 | 0.00 | 0.37 | 0.37 | 94 | 1009.1 |
| 20260503034543 | 37 | 0 | 0.0 | 2.0 | 0.00 | 0.37 | 0.37 | 93 | 1009.3 |
| 20260503034029 | 37 | 0 | 0.0 | 3.0 | 0.00 | 0.37 | 0.37 | 93 | 1009.3 |
| 20260503033530 | 38 | 309 | 0.0 | 3.0 | 0.00 | 0.37 | 0.37 | 94 | 1009.4 |
| 20260503033050 | 38 | 0 | 1.0 | 2.0 | 0.00 | 0.37 | 0.37 | 94 | 1009.3 |
| 20260503032529 | 38 | 0 | 0.0 | 4.0 | 0.00 | 0.37 | 0.37 | 94 | 1009.4 |
| 20260503032029 | 38 | 0 | 0.0 | 4.0 | 0.00 | 0.37 | 0.37 | 94 | 1009.4 |
| 20260503031541 | 38 | 322 | 0.0 | 4.0 | 0.00 | 0.37 | 0.37 | 94 | 1009.4 |
| 20260503031029 | 38 | 304 | 0.0 | 3.0 | 0.00 | 0.37 | 0.37 | 94 | 1009.5 |
| 20260503030529 | 39 | 323 | 0.0 | 5.0 | 0.00 | 0.37 | 0.37 | 94 | 1009.6 |
| 20260503030043 | 39 | 0 | 1.0 | 5.0 | 0.00 | 0.37 | 0.37 | 94 | 1009.6 |
| 20260503025530 | 39 | 336 | 1.0 | 6.0 | 0.00 | 0.37 | 0.37 | 94 | 1009.6 |
| 20260503025031 | 39 | 309 | 2.0 | 6.0 | 0.00 | 0.37 | 0.37 | 94 | 1009.5 |
| 20260503024547 | 39 | 279 | 1.0 | 4.0 | 0.00 | 0.37 | 0.37 | 94 | 1009.8 |
| 20260503024033 | 39 | 267 | 1.0 | 3.0 | 0.01 | 0.37 | 0.37 | 94 | 1009.8 |
| 20260503023531 | 39 | 0 | 0.0 | 3.0 | 0.01 | 0.37 | 0.37 | 94 | 1009.8 |
| 20260503023045 | 40 | 0 | 1.0 | 5.0 | 0.02 | 0.37 | 0.37 | 94 | 1009.9 |
| 20260503022531 | 40 | 0 | 0.0 | 5.0 | 0.04 | 0.37 | 0.37 | 94 | 1010.0 |
| 20260503022033 | 40 | 327 | 0.0 | 5.0 | 0.06 | 0.37 | 0.37 | 94 | 1010.0 |
| 20260503021540 | 40 | 0 | 1.0 | 4.0 | 0.10 | 0.37 | 0.37 | 94 | 1010.0 |
| 20260503021031 | 40 | 355 | 0.0 | 3.0 | 0.10 | 0.37 | 0.37 | 94 | 1009.9 |
| 20260503020533 | 40 | 335 | 0.0 | 3.0 | 0.10 | 0.37 | 0.37 | 93 | 1009.9 |
| 20260503020044 | 40 | 346 | 0.0 | 3.0 | 0.10 | 0.37 | 0.37 | 94 | 1009.9 |
| 20260503015531 | 40 | 306 | 0.0 | 4.0 | 0.10 | 0.37 | 0.37 | 94 | 1009.9 |
| 20260503015033 | 40 | 326 | 0.0 | 4.0 | 0.10 | 0.37 | 0.37 | 94 | 1009.9 |
| 20260503014551 | 41 | 340 | 0.0 | 2.0 | 0.10 | 0.37 | 0.37 | 94 | 1009.9 |
| 20260503014030 | 41 | 0 | 0.0 | 4.0 | 0.09 | 0.36 | 0.36 | 94 | 1010.0 |
| 20260503013531 | 41 | 0 | 0.0 | 4.0 | 0.09 | 0.36 | 0.36 | 93 | 1010.1 |
| 20260503013039 | 41 | 323 | 1.0 | 5.0 | 0.08 | 0.35 | 0.35 | 93 | 1010.0 |
| 20260503012533 | 41 | 336 | 2.0 | 12.0 | 0.06 | 0.33 | 0.33 | 93 | 1010.0 |
| 20260503012033 | 41 | 323 | 3.0 | 12.0 | 0.03 | 0.30 | 0.30 | 94 | 1009.8 |
| 20260503011553 | 42 | 271 | 1.0 | 6.0 | 0.00 | 0.27 | 0.27 | 94 | 1009.7 |
| 20260503011032 | 42 | 0 | 0.0 | 2.0 | 0.00 | 0.27 | 0.27 | 94 | 1009.4 |
| 20260503010530 | 42 | 106 | 0.0 | 2.0 | 0.00 | 0.27 | 0.27 | 94 | 1009.4 |
| 20260503010037 | 42 | 106 | 0.0 | 2.0 | 0.00 | 0.27 | 0.27 | 94 | 1009.5 |
| 20260503005530 | 42 | 106 | 0.0 | 2.0 | 0.00 | 0.27 | 0.27 | 94 | 1009.4 |
| 20260503005030 | 42 | 0 | 0.0 | 1.0 | 0.00 | 0.27 | 0.27 | 93 | 1009.4 |
| 20260503004541 | 42 | 0 | 0.0 | 1.0 | 0.00 | 0.27 | 0.27 | 93 | 1009.4 |
| 20260503004030 | 42 | 106 | 0.0 | 1.0 | 0.00 | 0.27 | 0.27 | 93 | 1009.4 |
| 20260503003530 | 42 | 0 | 0.0 | 1.0 | 0.00 | 0.27 | 0.27 | 93 | 1009.2 |
| 20260503003041 | 43 | 0 | 0.0 | 1.0 | 0.00 | 0.27 | 0.27 | 93 | 1009.1 |
| 20260503002529 | 43 | 0 | 0.0 | 0.0 | 0.00 | 0.27 | 0.27 | 93 | 1009.1 |
| 20260503002029 | 43 | 0 | 0.0 | 0.0 | 0.00 | 0.27 | 0.27 | 93 | 1009.1 |
| 20260503001556 | 43 | 0 | 0.0 | 0.0 | 0.00 | 0.27 | 0.27 | 93 | 1009.0 |
| 20260503001029 | 43 | 0 | 0.0 | 1.0 | 0.00 | 0.27 | 0.27 | 93 | 1009.1 |
| 20260503000530 | 44 | 0 | 0.0 | 1.0 | 0.00 | 0.27 | 0.27 | 93 | 1009.0 |
| 20260503000056 | 44 | 0 | 0.0 | 1.0 | 0.00 | 0.27 | 0.27 | 93 | 1009.0 |
| 20260502235529 | 44 | 0 | 0.0 | 1.0 | 0.00 | 0.27 | 0.27 | 93 | 1009.0 |
| 20260502235030 | 44 | 0 | 0.0 | 1.0 | 0.00 | 0.27 | 0.27 | 93 | 1008.9 |
| 20260502234606 | 44 | 0 | 0.0 | 1.0 | 0.00 | 0.27 | 0.27 | 93 | 1009.0 |
| 20260502234030 | 44 | 0 | 0.0 | 1.0 | 0.00 | 0.27 | 0.27 | 93 | 1009.0 |
| 20260502233530 | 44 | 0 | 0.0 | 1.0 | 0.00 | 0.27 | 0.27 | 93 | 1008.9 |
| 20260502233043 | 44 | 0 | 0.0 | 1.0 | 0.00 | 0.27 | 0.27 | 93 | 1008.9 |
| 20260502232529 | 44 | 106 | 0.0 | 2.0 | 0.00 | 0.27 | 0.27 | 93 | 1008.9 |
| 20260502232032 | 44 | 0 | 0.0 | 2.0 | 0.00 | 0.27 | 0.27 | 93 | 1009.0 |
| 20260502231541 | 45 | 0 | 0.0 | 1.0 | 0.00 | 0.27 | 0.27 | 93 | 1008.9 |
| 20260502231029 | 45 | 0 | 0.0 | 1.0 | 0.00 | 0.27 | 0.27 | 93 | 1008.9 |
| 20260502230530 | 45 | 106 | 0.0 | 2.0 | 0.00 | 0.27 | 0.27 | 92 | 1008.9 |
| 20260502230038 | 45 | 0 | 0.0 | 2.0 | 0.00 | 0.27 | 0.27 | 92 | 1008.8 |
| 20260502225529 | 45 | 106 | 0.0 | 2.0 | 0.00 | 0.27 | 0.27 | 92 | 1008.9 |
| 20260502225029 | 45 | 0 | 0.0 | 2.0 | 0.00 | 0.27 | 0.27 | 91 | 1008.8 |
| 20260502224538 | 45 | 0 | 0.0 | 2.0 | 0.00 | 0.27 | 0.27 | 91 | 1008.8 |
| 20260502224031 | 45 | 0 | 0.0 | 2.0 | 0.00 | 0.27 | 0.27 | 91 | 1008.8 |
| 20260502223531 | 45 | 0 | 0.0 | 2.0 | 0.00 | 0.27 | 0.27 | 90 | 1008.7 |
| 20260502223033 | 45 | 68 | 1.0 | 2.0 | 0.00 | 0.27 | 0.27 | 89 | 1008.6 |
| 20260502222529 | 46 | 0 | 0.0 | 2.0 | 0.00 | 0.27 | 0.27 | 89 | 1008.7 |
| 20260502222029 | 46 | 68 | 0.0 | 2.0 | 0.00 | 0.27 | 0.27 | 89 | 1008.7 |
| 20260502221541 | 46 | 0 | 0.0 | 3.0 | 0.00 | 0.27 | 0.27 | 89 | 1008.5 |
| 20260502221030 | 46 | 0 | 0.0 | 3.0 | 0.00 | 0.27 | 0.27 | 89 | 1008.5 |
| 20260502220531 | 46 | 68 | 1.0 | 3.0 | 0.00 | 0.27 | 0.27 | 89 | 1008.6 |
| 20260502220039 | 46 | 81 | 0.0 | 2.0 | 0.00 | 0.27 | 0.27 | 89 | 1008.6 |
| 20260502215534 | 46 | 0 | 0.0 | 2.0 | 0.00 | 0.27 | 0.27 | 89 | 1008.6 |
| 20260502215030 | 46 | 0 | 0.0 | 3.0 | 0.00 | 0.27 | 0.27 | 89 | 1008.6 |
| 20260502214540 | 46 | 0 | 1.0 | 3.0 | 0.00 | 0.27 | 0.27 | 88 | 1008.6 |
| 20260502214035 | 46 | 73 | 0.0 | 3.0 | 0.00 | 0.27 | 0.27 | 89 | 1008.6 |
| 20260502213531 | 46 | 71 | 0.0 | 3.0 | 0.00 | 0.27 | 0.27 | 89 | 1008.6 |
| 20260502213045 | 46 | 67 | 0.0 | 3.0 | 0.00 | 0.27 | 0.27 | 90 | 1008.6 |
| 20260502212531 | 46 | 0 | 0.0 | 3.0 | 0.00 | 0.27 | 0.27 | 89 | 1008.7 |
| 20260502212031 | 46 | 0 | 1.0 | 4.0 | 0.00 | 0.27 | 0.27 | 88 | 1008.6 |
| 20260502211544 | 46 | 0 | 0.0 | 4.0 | 0.00 | 0.27 | 0.27 | 89 | 1008.8 |
| 20260502211030 | 46 | 0 | 0.0 | 4.0 | 0.00 | 0.27 | 0.27 | 88 | 1008.7 |
| 20260502210530 | 46 | 78 | 1.0 | 5.0 | 0.01 | 0.27 | 0.27 | 89 | 1008.6 |
| 20260502210044 | 47 | 36 | 1.0 | 5.0 | 0.01 | 0.27 | 0.27 | 88 | 1008.5 |
| 20260502205530 | 47 | 23 | 1.0 | 3.0 | 0.02 | 0.27 | 0.27 | 89 | 1008.7 |
| 20260502205030 | 47 | 65 | 1.0 | 3.0 | 0.02 | 0.27 | 0.27 | 91 | 1008.6 |
| 20260502204539 | 47 | 75 | 1.0 | 3.0 | 0.02 | 0.27 | 0.27 | 90 | 1008.6 |
| 20260502204034 | 46 | 0 | 1.0 | 3.0 | 0.03 | 0.27 | 0.27 | 89 | 1008.6 |
| 20260502203534 | 46 | 360 | 1.0 | 4.0 | 0.03 | 0.27 | 0.27 | 88 | 1008.7 |
| 20260502203046 | 47 | 355 | 1.0 | 8.0 | 0.03 | 0.27 | 0.27 | 88 | 1008.6 |
| 20260502202530 | 47 | 312 | 2.0 | 8.0 | 0.03 | 0.27 | 0.27 | 88 | 1008.6 |
| 20260502202030 | 47 | 352 | 3.0 | 8.0 | 0.04 | 0.27 | 0.27 | 92 | 1008.6 |
| 20260502201540 | 46 | 309 | 2.0 | 5.0 | 0.05 | 0.27 | 0.27 | 93 | 1008.6 |
| 20260502201031 | 45 | 331 | 2.0 | 5.0 | 0.05 | 0.27 | 0.27 | 91 | 1008.6 |
| 20260502200530 | 45 | 5 | 2.0 | 5.0 | 0.04 | 0.26 | 0.26 | 91 | 1008.6 |
| 20260502200035 | 45 | 22 | 1.0 | 4.0 | 0.03 | 0.25 | 0.25 | 91 | 1009.0 |
| 20260502195529 | 45 | 323 | 0.0 | 4.0 | 0.04 | 0.25 | 0.25 | 92 | 1009.0 |
| 20260502195030 | 45 | 5 | 1.0 | 3.0 | 0.04 | 0.25 | 0.25 | 91 | 1008.9 |
| 20260502194542 | 45 | 196 | 0.0 | 2.0 | 0.04 | 0.25 | 0.25 | 91 | 1009.0 |
| 20260502194028 | 45 | 0 | 0.0 | 3.0 | 0.03 | 0.24 | 0.24 | 90 | 1009.0 |
| 20260502193532 | 46 | 196 | 1.0 | 4.0 | 0.03 | 0.24 | 0.24 | 90 | 1009.0 |
| 20260502193056 | 46 | 161 | 0.0 | 5.0 | 0.03 | 0.24 | 0.24 | 91 | 1009.0 |
| 20260502192533 | 46 | 160 | 2.0 | 5.0 | 0.03 | 0.24 | 0.24 | 91 | 1008.9 |
| 20260502192030 | 46 | 148 | 1.0 | 5.0 | 0.02 | 0.23 | 0.23 | 91 | 1008.8 |
| 20260502191550 | 46 | 165 | 1.0 | 6.0 | 0.01 | 0.22 | 0.22 | 91 | 1008.8 |
| 20260502191029 | 46 | 163 | 1.0 | 6.0 | 0.01 | 0.22 | 0.22 | 90 | 1008.9 |